Regional Weather Roundup
Issued by NWS

Home | Current Version | Previous Version | Text Only | Print | Product List | Glossary On
Versions: 1 2 3 4 5 6 7 8 9 10 11 12 13 14 15 16 17 18 19 20 21 22 23 24 25 26 27 28 29 30 31 32 33 34 35 36 37 38 39 40 41 42 43 44 45 46 47 48 49 50
000
ASUS44 KMEG 010110
RWRTN
TENNESSEE HOURLY STATE WEATHER ROUNDUP
NATIONAL WEATHER SERVICE MEMPHIS TN
800 PM CDT WED AUG 31 2016

TNZ002-004-019-021-049-052-054-088>092-010200-
WEST TENNESSEE

CITY           SKY/WX    TMP DP  RH WIND       PRES   REMARKS
MEMPHIS INTL   PTCLDY    87  72  60 N12       29.93R HX  93
NWS MEMPHIS      N/A     85 N/A N/A MISG        N/A
JACKSON        CLEAR     80  74  81 N5        29.94R
DYERSBURG      PTCLDY   N/A N/A N/A MISG        N/A
UNION CITY     CLEAR     79  73  83 N3        29.94R
PARIS          CLEAR     77  72  83 N3        29.96R
HUNTINGDON     CLEAR     79  75  89 CALM      29.94R
LEXINGTON      CLEAR     79  73  83 CALM      29.94R
$$

TNZ008-025-027-028-033-062-065-066-010200-
NORTH MIDDLE TENNESSEE

CITY           SKY/WX    TMP DP  RH WIND       PRES   REMARKS
NASHVILLE      PTCLDY    83  71  67 N6        29.94R
PORTLAND       CLEAR     79  73  83 CALM      29.95S
CLARKSVILLE    CLEAR     79  71  76 N7        29.95R
SMYRNA         CLEAR     82  72  69 NE7       29.94R
COOKEVILLE     PTCLDY    81  73  78 NE6       29.95R
GALLATIN       PTCLDY    82  73  74 N6        29.97R
CROSSVILLE     PTCLDY    71  70  96 W3        30.01R
$$

TNZ061-075-076-078-094-096-097-010200-
SOUTH MIDDLE TENNESSEE

CITY           SKY/WX    TMP DP  RH WIND       PRES   REMARKS
FAYETTEVILLE   PTCLDY    79  70  73 N6        29.94R
TULLAHOMA      MOCLDY    79  70  73 NW5       29.97R
WINCHESTER     CLEAR     79  70  73 CALM      29.95R
MCMINNVILLE    CLEAR     81  73  78 N5        29.95R
COLUMBIA       CLEAR     81  81 100 CALM      29.93R HX  91
SHELBYVILLE    PTCLDY    79  75  89 CALM      29.95R
$$

TNZ017-018-042-046-047-010200-
NORTHEAST TENNESSEE

CITY           SKY/WX    TMP DP  RH WIND       PRES   REMARKS
TRI CITIES     CLOUDY    78  68  71 CALM      29.97R
ELIZABETHTON     N/A     75  68  78 E7        29.98R
$$

TNZ012-013-036-069-073-074-010200-
CENTRAL EAST TENNESSEE

CITY           SKY/WX    TMP DP  RH WIND       PRES   REMARKS
KNOXVILLE      CLOUDY    83  69  62 NW7       29.91R
OAK RIDGE      PTCLDY    82  67  60 CALM      29.94R
DOWNTOWN KNOXV CLEAR     79  72  78 CALM      29.92R
GATLINBURG     PTCLDY    79  66  65 CALM      29.92R
MORRISTOWN     PTCLDY    81  68  65 N5        29.94R
JACKSBORO      CLEAR     75  72  88 CALM      29.98R
$$

TNZ083-085-099-010200-
SOUTHEAST TENNESSEE

CITY           SKY/WX    TMP DP  RH WIND       PRES   REMARKS
CHATTANOOGA    PTCLDY    85  67  54 N6        29.91R
$$

SKY/WX REPORTED AS FAIR MEANS FEW OR NO CLOUDS BELOW
12 THOUSAND FEET.





USA.gov is the U.S. government's official web portal to all federal, state and local government web resources and services.